Content
SEND FEEDBACK

Daily
Averages
Monthly
Summary
United States of America

MERIZO, GUAM


Home > North America > United States > Guam
Elevation: 10 feet     Latitude: 13 14N     Longitude: 144 39E

WEATHER
 
SELECT A DAY
Number of Records: 356,964;   Date Range: 1/1/95 - 12/23/14
 
SHARE

PRINT THIS DATA

[ ← Previous Day ]
WEATHER ALMANAC - MARCH 24, 2014
[ Next Day → ]
[ °C ]   °F
Weather ElementAverageHighLow
Temperature79.9 °F84.2 °F (11:48 am)76.6 °F (3:58 am)
Dewpoint72.6 °F75.2 °F (11:33 am)69.8 °F (3:18 am)
Humidity78.6 %89 % (2:13 am)70 % (11:53 am)
Barometer29.91 in29.96 in (8:08 am)29.83 in (3:58 pm)
Wind Speed16 mph20.7 mph (10:38 am)
Wind Gust24.2 mph (11:48 am)
Weather ElementAverage
Visibility10 mi
Wind DirectionENE (64.5 °)

Weather ElementTotal
Precipitation---
Cooling Degree Days15.4 (Base 65)
Growing Degree Days30.4 (Base 50)
Averaged from 65 records on March 24, 2014
WEATHER CONDITIONS BREAKOUT
WIND DIRECTION BREAKOUT
WEATHER BY HOUR - MARCH 24, 2014
[ °C ]   °F
Local TimeTemperatureDewpointHumidityBarometerVisibilityWind DirectionWind SpeedGust SpeedPrecipitationEventsConditions
12:58 AM77.0 °F71.6 °F83 %29.92 in10.0 miENE (70°)16.1 mphMostly Cloudy
1:03 AM77.0 °F71.6 °F83 %29.94 in10.0 miENE (70°)15.0 mphScattered Clouds
1:58 AM77.0 °F71.8 °F84 %29.91 in10.0 miENE (60°)15.0 mphScattered Clouds
2:08 AM77.0 °F71.6 °F83 %29.92 in10.0 miENE (60°)12.7 mphMostly Cloudy
2:13 AM77.0 °F73.4 °F89 %29.92 in10.0 miENE (60°)13.8 mphScattered Clouds
2:28 AM77.0 °F71.6 °F83 %29.92 in10.0 miENE (60°)15.0 mphMostly Cloudy
2:38 AM77.0 °F71.6 °F83 %29.92 in10.0 miENE (60°)11.5 mphScattered Clouds
2:58 AM77.4 °F72.1 °F84 %29.88 in10.0 miENE (60°)17.3 mphScattered Clouds
3:09 AM77.0 °F73.4 °F89 %29.91 in10.0 miENE (60°)18.4 mphRainLight Rain
3:18 AM77.0 °F69.8 °F78 %29.91 in10.0 miENE (70°)13.8 mph23.0 mphPartly Cloudy
3:58 AM76.6 °F71.6 °F84 %29.87 in10.0 miENE (60°)15.0 mph0.00 inPartly Cloudy
4:13 AM77.0 °F71.6 °F83 %29.90 in10.0 miENE (70°)13.8 mphMostly Cloudy
4:23 AM77.0 °F71.6 °F83 %29.91 in10.0 miENE (60°)12.7 mphScattered Clouds
4:58 AM77.0 °F72.1 °F85 %29.88 in10.0 miENE (60°)13.8 mphScattered Clouds
5:18 AM77.0 °F71.6 °F83 %29.92 in10.0 miENE (60°)16.1 mphMostly Cloudy
5:23 AM77.0 °F71.6 °F83 %29.92 in10.0 miENE (60°)15.0 mphScattered Clouds
5:58 AM77.4 °F71.8 °F83 %29.91 in10.0 miENE (60°)12.7 mphMostly Cloudy
6:03 AM77.0 °F71.6 °F83 %29.93 in10.0 miENE (60°)13.8 mphScattered Clouds
6:08 AM77.0 °F71.6 °F83 %29.93 in10.0 miENE (70°)16.1 mphMostly Cloudy
6:13 AM77.0 °F71.6 °F83 %29.93 in10.0 miENE (70°)15.0 mphScattered Clouds
6:58 AM77.5 °F72.1 °F83 %29.91 in10.0 miENE (60°)13.8 mphScattered Clouds
7:08 AM78.8 °F71.6 °F78 %29.94 in10.0 miENE (60°)15.0 mphMostly Cloudy
7:18 AM78.8 °F71.6 °F78 %29.95 in10.0 miENE (60°)15.0 mphScattered Clouds
7:48 AM78.8 °F73.4 °F83 %29.95 in10.0 miNE (50°)16.1 mphMostly Cloudy
7:53 AM78.8 °F73.4 °F83 %29.95 in10.0 miENE (60°)13.8 mphScattered Clouds
7:58 AM79.3 °F73.4 °F82 %29.92 in10.0 miENE (60°)15.0 mphMostly Cloudy
8:08 AM80.6 °F73.4 °F79 %29.96 in10.0 miENE (60°)15.0 mphMostly Cloudy
8:13 AM80.6 °F73.4 °F79 %29.96 in10.0 miENE (60°)16.1 mphMostly Cloudy
8:18 AM80.6 °F73.4 °F79 %29.96 in10.0 miENE (60°)16.1 mphScattered Clouds
8:23 AM80.6 °F73.4 °F79 %29.96 in10.0 miENE (60°)17.3 mphMostly Cloudy
8:28 AM80.6 °F73.4 °F79 %29.96 in10.0 miENE (60°)17.3 mphMostly Cloudy
8:53 AM80.6 °F73.4 °F79 %29.96 in10.0 miENE (60°)16.1 mphScattered Clouds
8:58 AM81.1 °F73.2 °F77 %29.94 in10.0 miENE (60°)17.3 mphScattered Clouds
9:48 AM82.4 °F73.4 °F74 %29.95 in10.0 miENE (60°)16.1 mphMostly Cloudy
9:53 AM82.4 °F73.4 °F74 %29.95 in10.0 miENE (60°)18.4 mphMostly Cloudy
9:58 AM81.5 °F73.2 °F76 %29.92 in10.0 miENE (70°)17.3 mphMostly Cloudy
10:13 AM82.4 °F73.4 °F74 %29.95 in10.0 miENE (60°)18.4 mphMostly Cloudy
10:18 AM82.4 °F73.4 °F74 %29.95 in10.0 miENE (70°)17.3 mphScattered Clouds
10:23 AM82.4 °F73.4 °F74 %29.95 in10.0 miENE (70°)17.3 mphMostly Cloudy
10:28 AM82.4 °F73.4 °F74 %29.95 in10.0 miENE (60°)18.4 mphScattered Clouds
10:38 AM82.4 °F73.4 °F74 %29.94 in10.0 miENE (70°)20.7 mphMostly Cloudy
10:48 AM82.4 °F73.4 °F74 %29.94 in10.0 miENE (70°)18.4 mphMostly Cloudy
10:53 AM82.4 °F73.4 °F74 %29.94 in10.0 miENE (70°)18.4 mphScattered Clouds
10:58 AM83.1 °F73.9 °F74 %29.91 in10.0 miENE (60°)20.7 mphScattered Clouds
11:33 AM82.4 °F75.2 °F79 %29.92 in10.0 miENE (70°)18.4 mph23.0 mphMostly Cloudy
11:48 AM84.2 °F75.2 °F74 %29.92 in10.0 miENE (70°)18.4 mph24.2 mphMostly Cloudy
11:53 AM84.2 °F73.4 °F70 %29.92 in10.0 miENE (70°)18.4 mph24.2 mphMostly Cloudy
11:58 AM84.0 °F74.1 °F72 %29.88 in10.0 miEast (80°)18.4 mph24.2 mphMostly Cloudy
12:23 PM84.2 °F73.4 °F70 %29.91 in10.0 miENE (70°)18.4 mph24.2 mphScattered Clouds
12:58 PM83.3 °F73.8 °F73 %29.87 in10.0 miEast (90°)18.4 mphScattered Clouds
1:58 PM83.3 °F74.1 °F74 %29.84 in10.0 miENE (70°)16.1 mph21.9 mphPartly Cloudy
2:58 PM83.8 °F73.0 °F70 %29.84 in10.0 miENE (70°)16.1 mphPartly Cloudy
3:58 PM82.8 °F73.2 °F73 %29.83 in10.0 miENE (70°)18.4 mphPartly Cloudy
4:15 PM82.4 °F73.4 °F74 %29.87 in10.0 miENE (70°)16.1 mphRainLight Rain
4:20 PM82.4 °F73.4 °F74 %29.87 in10.0 miENE (60°)19.6 mphRainLight Rain
4:24 PM80.6 °F73.4 °F79 %29.87 in10.0 miENE (60°)15.0 mphMostly Cloudy
4:29 PM80.6 °F73.4 °F79 %29.87 in10.0 miENE (60°)16.1 mphScattered Clouds
4:58 PM81.3 °F72.3 °F74 %29.84 in10.0 miENE (70°)15.0 mph0.00 inPartly Cloudy
5:58 PM79.9 °F71.4 °F75 %29.86 in10.0 miENE (70°)15.0 mphScattered Clouds
6:58 PM78.8 °F71.6 °F78 %29.88 in10.0 miENE (70°)12.7 mphScattered Clouds
7:58 PM77.9 °F71.2 °F80 %29.89 in10.0 miENE (60°)15.0 mphPartly Cloudy
8:58 PM78.1 °F70.7 °F78 %29.91 in10.0 miENE (70°)16.1 mphPartly Cloudy
9:58 PM77.9 °F70.2 °F77 %29.92 in10.0 miENE (70°)16.1 mphPartly Cloudy
10:58 PM77.7 °F70.3 °F78 %29.92 in10.0 miENE (60°)13.8 mphPartly Cloudy
11:58 PM77.4 °F71.2 °F81 %29.91 in10.0 miENE (60°)13.8 mphScattered Clouds
Hourly data recorded from PGUA, located miles away from Merizo, Guam







STORIES FROM OUR PARTNERS